Williamsport, PA

8:29 AM EDT on September 24, 2017 (GMT -0400)
Williamsport Rgnl

Weather History for KIPT - July, 2012

Change the Weather History Date:

Tuesday, July 31, 2012

  Actual Average Record
Temperature  
Mean Temperature 75 °F 73 °F  
Max Temperature 83 °F 83 °F 100 °F (1933)
Min Temperature 66 °F 62 °F 47 °F (1936)
Degree Days  
Heating Degree Days 0 0  
Month to date heating degree days 0 0  
Since 1 June heating degree days 24 41  
Since 1 July heating degree days 0 4  
Cooling Degree Days 10 8  
Month to date cooling degree days 376 244  
Year to date cooling degree days 636 433  
Since 1 June cooling degree days 528 390  
Growing Degree Days 24 (Base 50)    
Moisture  
Dew Point 65 °F    
Average Humidity 70    
Maximum Humidity 84    
Minimum Humidity 55    
Precipitation  
Precipitation 0.12 in 0.14 in 1.89 in (2004)
Month to date precipitation 3.69 4.34  
Year to date precipitation 19.75 23.17  
Sea Level Pressure  
Sea Level Pressure 29.96 in    
Wind  
Wind Speed 5 mph (East)    
Max Wind Speed 21 mph    
Max Gust Speed 26 mph    
Visibility 10 miles    
Events Rain , Thunderstorm    
T = Trace of Precipitation, MM = Missing Value Source: NWS Daily Summary

Daily Weather History Graph

Daily Weather History Graph

Search for Another Location

Airport or City:

Trip Planner

Search our weather history database for the weather conditions in past years. The results will help you decide how hot, cold, wet, or windy it might be!

Date:

Astronomy

Jul. 31, 2012 Rise Set
Actual Time 6:02 AM EDT 8:24 PM EDT
Civil Twilight 5:31 AM EDT 8:55 PM EDT
Nautical Twilight 4:52 AM EDT 9:34 PM EDT
Astronomical Twilight 4:10 AM EDT 10:16 PM EDT
Moon 7:12 PM EDT (7/31) 4:20 AM EDT (7/31)
Length of Visible Light 15h 24m
Length of Day
14h 22m
Waxing Gibbous, 97% of the Moon is Illuminated
Jul 31
Waxing Gibbous
Aug 1
Full
Aug 9
Last Quarter
Aug 17
New
Aug 24
First Quarter

Hourly Weather History & Observations

Time (EDT) Temp. Heat Index Dew Point Humidity Pressure Visibility Wind Dir Wind Speed Gust Speed Precip Events Conditions
12:54 AM 72.0 °F - 66.0 °F 81% 30.02 in 10.0 mi East 6.9 mph - N/A   Partly Cloudy
1:21 AM 73.4 °F - 66.2 °F 78% 30.03 in 10.0 mi ENE 8.1 mph - N/A   Mostly Cloudy
1:54 AM 73.0 °F - 66.9 °F 81% 30.03 in 10.0 mi Variable 3.5 mph - N/A   Overcast
2:54 AM 72.0 °F - 66.0 °F 81% 30.01 in 10.0 mi East 6.9 mph - N/A   Overcast
3:54 AM 73.0 °F - 64.9 °F 76% 30.01 in 10.0 mi NE 3.5 mph - N/A   Overcast
4:54 AM 73.0 °F - 64.9 °F 76% 30.01 in 10.0 mi ENE 4.6 mph - N/A   Overcast
5:54 AM 72.0 °F - 64.0 °F 76% 30.01 in 10.0 mi NE 4.6 mph - N/A   Overcast
6:54 AM 71.1 °F - 64.9 °F 81% 30.01 in 10.0 mi East 3.5 mph - N/A   Overcast
7:54 AM 72.0 °F - 64.9 °F 78% 30.01 in 10.0 mi ENE 3.5 mph - N/A   Overcast
8:39 AM 71.6 °F - 64.4 °F 78% 30.01 in 10.0 mi ENE 6.9 mph - N/A   Overcast
8:54 AM 72.0 °F - 64.9 °F 78% 30.01 in 10.0 mi ENE 9.2 mph - N/A   Overcast
9:54 AM 72.0 °F - 66.0 °F 81% 30.00 in 10.0 mi Calm Calm - N/A   Overcast
10:26 AM 73.4 °F - 66.2 °F 78% 30.00 in 10.0 mi East 5.8 mph - N/A   Overcast
10:54 AM 75.0 °F - 66.9 °F 76% 29.98 in 10.0 mi East 8.1 mph - N/A   Overcast
11:44 AM 75.2 °F - 66.2 °F 73% 29.99 in 10.0 mi East 4.6 mph - N/A   Overcast
11:54 AM 75.9 °F - 66.0 °F 71% 29.97 in 10.0 mi ESE 3.5 mph - N/A   Overcast
12:54 PM 77.0 °F - 66.0 °F 69% 29.96 in 10.0 mi Calm Calm - N/A   Overcast
1:31 PM 80.6 °F 83.2 °F 68.0 °F 65% 29.95 in 10.0 mi Variable 4.6 mph - N/A   Mostly Cloudy
1:54 PM 80.1 °F 82.7 °F 68.0 °F 67% 29.94 in 10.0 mi SSE 9.2 mph 16.1 mph N/A   Mostly Cloudy
2:54 PM 80.6 °F 82.7 °F 66.2 °F 61% 29.93 in 10.0 mi South 6.9 mph 16.1 mph N/A   Mostly Cloudy
3:54 PM 82.0 °F 84.1 °F 66.0 °F 58% 29.90 in 10.0 mi SE 10.4 mph 16.1 mph N/A   Scattered Clouds
4:54 PM 82.9 °F 84.6 °F 64.9 °F 54% 29.87 in 10.0 mi SSE 10.4 mph 16.1 mph N/A   Scattered Clouds
5:54 PM 80.1 °F 81.9 °F 64.9 °F 60% 29.88 in 10.0 mi Calm Calm - N/A   Clear
6:54 PM 80.1 °F 82.1 °F 66.0 °F 62% 29.86 in 10.0 mi ENE 5.8 mph - N/A   Mostly Cloudy
7:54 PM 79.0 °F - 66.0 °F 64% 29.86 in 10.0 mi SE 8.1 mph - N/A   Partly Cloudy
8:54 PM 79.0 °F - 64.9 °F 62% 29.86 in 10.0 mi ENE 3.5 mph - N/A   Overcast
9:10 PM 78.8 °F - 66.2 °F 65% 29.88 in 10.0 mi ENE 6.9 mph - N/A Thunderstorm Thunderstorm
9:49 PM 69.8 °F - 62.6 °F 78% 29.94 in 10.0 mi West 8.1 mph 24.2 mph N/A Rain , Thunderstorm Thunderstorms and Rain
9:54 PM 68.0 °F - 63.0 °F 84% 29.94 in 8.0 mi Calm Calm - N/A Rain , Thunderstorm Thunderstorms and Rain
10:09 PM 68.0 °F - 62.6 °F 83% 29.95 in 10.0 mi NW 4.6 mph - 0.01 in Rain Light Rain
10:13 PM 68.0 °F - 62.6 °F 83% 29.94 in 10.0 mi Variable 3.5 mph - 0.01 in Rain , Thunderstorm Thunderstorms and Rain
10:20 PM 68.0 °F - 62.6 °F 83% 29.94 in 8.0 mi South 4.6 mph - 0.02 in Rain , Thunderstorm Thunderstorms and Rain
10:29 PM 68.0 °F - 62.6 °F 83% 29.94 in 10.0 mi Variable 3.5 mph - 0.03 in Rain Light Rain
10:54 PM 66.2 °F - 64.4 °F 94% 29.95 in 10.0 mi WNW 4.6 mph - N/A Rain Light Rain
11:54 PM 66.2 °F - 62.6 °F 88% 29.93 in 4.0 mi WSW 3.5 mph - N/A Rain Heavy Rain